View from above orbital plane
|
View from above satellite
|
Ground track
|
The orbit data is extracted from the following two-line orbital elements,
1 06155U 72065B 21059.46621939 .00000135 00000-0 24904-4 0 9996
2 06155 35.0026 195.4579 0037079 138.6572 221.6943 14.71650259570350
Epoch (UTC): | 28 February 2021 11:11:21 |
Eccentricity: | 0.0037079 |
inclination: | 35.0026° |
perigee height: | 630 km |
apogee height: | 682 km |
right ascension of ascending node: | 195.4579° |
argument of perigee: | 138.6572° |
revolutions per day: | 14.71650259 |
mean anomaly at epoch: | 221.6943° |
orbit number at epoch: | 57035 |
The dashed part of the orbit path shows where the satellite is in the earth's shadow,
|
|